Regional Weather Roundup
Issued by NWS

Home | Current Version | Previous Version | Graphics & Text | Print | Product List | Glossary On
Versions: 1 2 3 4 5 6 7 8 9 10 11 12 13 14 15 16 17 18 19 20 21 22 23 24 25 26 27 28 29 30 31 32 33 34 35 36 37 38 39 40 41 42 43 44 45 46 47 48 49
000
ASUS45 KBOI 030810
RWRID

IDAHO REGIONAL WEATHER ROUNDUP
NATIONAL WEATHER SERVICE BOISE ID
200 AM MDT THU SEP 03 2015

NOTE: "FAIR" INDICATES FEW OR NO CLOUDS BELOW 12000 FEET
WITH NO SIGNIFICANT WEATHER AND/OR OBSTRUCTIONS TO VISIBILITY

IDZ012-014-030900-
SOUTHWEST IDAHO


CITY           SKY/WX    TMP DP  RH WIND       PRES   REMARKS
BOISE          MOCLDY    62  42  47 W12       29.79R
CALDWELL       MOCLDY    61  37  41 W16       29.82R
MOUNTAIN HOME  CLOUDY    63  41  43 NW16      29.78R
$$

IDZ016-017-030900-
SOUTHCENTRAL IDAHO


CITY           SKY/WX    TMP DP  RH WIND       PRES   REMARKS
BURLEY         CLEAR     61  42  49 W7        29.79R
JEROME         MOCLDY    61  43  51 S7        29.82R
TWIN FALLS     PTCLDY    66  33  29 S9        29.82R
$$

IDZ019>023-030900-
SOUTHEAST IDAHO


CITY           SKY/WX    TMP DP  RH WIND       PRES   REMARKS
IDAHO FALLS    MOCLDY    61  46  57 S3        29.82F
POCATELLO      CLEAR     64  43  46 S6        29.79F
REXBURG        MOCLDY    58  41  53 CALM      29.82F
$$

IDZ006-010-011-018-031-032-030900-
CENTRAL IDAHO MOUNTAINS


CITY           SKY/WX    TMP DP  RH WIND       PRES   REMARKS
MCCALL         CLOUDY    55  42  61 N9        29.86F HAZE
HAILEY         CLOUDY    55  34  44 NW8       29.88F
STANLEY          N/A     45  29  53 CALM      29.91F
SALMON         PTCLDY    50  37  62 SW5       29.79R
CHALLIS        PTCLDY    52  28  39 CALM      29.82F
$$

IDZ002-004-006-007-026-030900-
NORTHERN IDAHO


CITY           SKY/WX    TMP DP  RH WIND       PRES   REMARKS
LEWISTON       CLOUDY    60  46  59 S6        29.86R
LOWELL           N/A     56  53  90 CALM      29.91S
COEUR D`ALENE  PTCLDY    55  45  67 S7        29.87F
MULLAN PASS    CLOUDY    41  35  79 S3        29.94F
$$



USA.gov is the U.S. government's official web portal to all federal, state and local government web resources and services.